Location: Claflin County Park
(44.8478°N, 87.5507°W)
Time: 07:43:07
(UTC+00:00)

USA 234 - Pass Details

Date: 20 March 2026
Orbit: 1102 x 1106 km, 123.0° (Epoch: 4 January)

Event Time Altitude Azimuth Distance (km) Brightness Sun altitude
Exits shadow 03:37:17 51° 6° (N) 1,364 3.8 -35.6°
Drops below altitude 10° 03:42:55 10° 313° (NW) 2,969 6.3 -36.3°
Sets 03:45:27 0° 309° (NW) 3,930 7.1 -36.6°
